Temperature
23 22 22 22 21 21 21 20 20 19 19 19 18 18 18 18 18 18 18 18 17 17 17 17 17 17 17 17 17 17 17 17 17 17 17 17 17 17 17 17 17 17 17
22 22 22 22 22 21 21 20 20 20 19 19 19 19 18 18 18 18 18 18 17 17 17 17 17 17 17 17 17 17 17 17 17 17 17 17 17 17 17 17 17 17 17
23 22 22 22 21 21 21 21 20 20 19 19 19 18 18 18 18 18 18 18 17 17 17 17 17 17 17 17 17 17 17 17 17 17 16 16 16 17 17 17 17 17 17
23 22 22 22 22 21 21 21 20 20 19 19 18 18 18 18 18 18 18 18 17 17 17 17 17 17 17 17 17 17 17 16 17 17 17 16 16 16 16 17 17 17 17
23 23 22 22 22 21 21 20 20 20 19 19 19 18 18 18 18 18 18 18 17 17 17 17 17 17 17 17 17 17 16 16 16 16 16 16 16 16 16 16 16 16 16
23 23 22 22 21 21 20 20 20 19 19 19 19 18 18 18 18 18 18 18 17 17 17 17 17 17 17 17 17 17 16 16 16 16 16 16 16 16 16 16 16 16 16
23 22 22 22 21 21 21 20 20 19 19 19 19 18 18 18 18 18 18 18 17 17 17 17 17 17 17 17 17 16 16 16 16 16 16 16 16 16 16 16 16 16 16
23 23 22 22 21 21 20 20 20 19 19 19 19 18 18 18 18 18 18 18 18 17 17 17 17 17 17 17 17 17 16 16 16 16 16 16 16 16 16 16 16 15 15
23 23 22 22 21 21 21 20 20 19 19 19 19 18 18 18 18 18 18 17 17 17 17 17 17 17 17 17 17 17 16 16 16 16 16 16 16 16 16 16 16 15 15
23 22 22 22 21 21 20 20 20 19 19 19 19 18 18 18 18 18 17 17 17 17 17 17 17 17 17 17 17 16 16 16 16 16 16 16 16 16 16 16 15 15 15
22 22 22 22 21 21 20 20 20 19 19 19 18 18 18 18 18 17 17 17 17 17 17 17 17 17 17 16 16 16 16 16 16 16 15 15 15 15 15 15 15 15 15
22 22 22 22 21 21 21 20 20 20 19 19 18 18 18 18 18 17 17 17 17 17 17 17 17 16 16 16 16 16 16 16 16 15 15 15 15 15 15 15 15 15 15
22 22 22 21 21 21 20 20 20 20 19 18 18 18 18 18 18 18 17 17 17 17 17 16 16 16 16 16 16 16 16 15 15 15 15 15 15 15 15 15 15 15 15
22 22 22 21 21 21 20 20 20 19 19 18 18 18 18 18 18 18 17 17 17 16 16 16 16 16 16 16 15 15 15 15 15 15 15 15 14 15 15 14 14 14 14
22 22 22 22 21 21 20 20 20 19 19 18 18 18 18 18 18 17 17 17 16 16 16 16 16 16 15 15 15 15 15 15 15 15 15 14 14 14 14 14 14 14 14
23 23 22 22 21 21 21 20 20 19 18 18 18 18 18 17 17 17 17 16 16 16 15 15 15 15 15 15 15 15 14 14 14 14 14 14 14 14 14 14 13 13 13
23 23 22 22 22 21 21 20 19 19 18 18 18 18 17 17 17 17 16 16 16 15 15 15 15 15 15 14 14 14 14 14 14 14 14 13 13 13 13 13 13 13 13
23 23 22 22 21 21 20 20 19 19 18 18 18 17 17 17 17 16 16 16 15 15 15 15 15 14 14 14 14 14 14 14 13 13 13 13 13 13 13 13 13 12 12
23 23 22 21 21 21 20 19 19 18 18 18 17 17 17 16 16 16 16 15 15 15 15 15 14 14 14 14 13 13 13 13 13 13 13 12 12 12 12 12 12 12 12
22 22 21 21 21 20 19 19 18 18 18 17 17 17 16 16 16 16 15 15 15 15 14 14 14 14 13 13 13 13 13 13 12 12 12 12 12 12 12 12 12 12 11
21 21 21 21 20 20 19 19 18 18 18 17 17 16 16 16 15 15 15 15 14 14 14 14 13 13 13 13 13 13 12 12 12 12 12 11 11 11 11 11 11 11 11
21 20 20 20 19 19 19 19 18 18 17 17 16 16 15 15 15 15 15 14 14 14 14 13 13 13 13 13 13 12 12 12 12 11 11 11 11 11 11 11 11 11 10
20 20 19 19 19 19 18 18 18 17 17 16 16 16 15 15 15 14 14 14 14 13 13 13 13 13 12 12 12 12 12 12 11 11 11 11 11 10 10 10 10 10 10
19 19 19 19 18 18 18 18 17 17 16 16 16 15 15 15 14 14 14 13 13 13 13 12 12 12 12 12 11 11 11 11 11 11 10 10 10 10 10 10 10 9 9
18 18 18 18 18 17 17 17 16 16 16 15 15 15 15 14 14 14 13 13 13 12 12 12 12 12 11 11 11 11 11 10 10 10 10 10 10 10 9 9 9 9 9
17 17 17 17 17 16 16 16 16 16 15 15 15 15 14 14 14 13 13 12 12 12 11 11 11 11 11 11 11 10 10 10 10 9 9 9 9 9 9 9 8 8 8
Wind_Speed
7 7 8 10 9 9 10 10 9 8 7 5 4 4 3 3 3 5 7 9 9 9 8 5 5 5 4 4 3 2 2 1 1 1 1 2 1 2 3 4 4 6 8
6 7 7 9 10 10 10 10 10 9 8 6 5 3 3 2 2 3 5 7 8 8 8 6 5 5 4 4 3 3 2 1 2 2 1 1 3 2 2 3 4 5 5
9 8 8 9 9 10 11 11 10 9 8 7 4 3 2 1 1 2 2 4 7 8 7 8 6 5 5 5 4 4 4 3 2 2 3 2 3 2 2 1 2 3 3
7 8 8 8 9 9 8 8 8 7 7 7 6 6 5 4 4 3 3 3 5 7 8 7 7 6 4 5 5 4 3 4 3 2 2 2 3 2 2 2 1 2 3
9 9 9 9 8 7 7 6 7 7 7 7 8 7 5 4 2 2 3 3 3 5 7 7 6 5 5 5 5 4 4 4 4 4 2 2 2 3 3 3 2 1 2
7 7 6 6 5 6 6 6 7 6 7 7 7 7 7 5 4 3 3 3 2 3 4 5 5 5 5 5 5 5 6 5 5 4 3 3 3 4 4 5 4 3 2
7 6 6 6 7 7 8 7 8 7 7 7 7 7 7 7 6 5 4 4 2 3 4 4 4 4 5 5 5 5 6 6 6 6 5 5 5 3 4 4 4 3 3
7 7 6 7 7 7 8 8 8 7 7 7 6 5 5 5 4 5 4 4 3 3 3 3 4 4 5 5 4 4 5 4 5 6 5 4 5 4 4 4 3 3 3
7 7 6 7 7 7 8 8 8 7 7 6 6 5 4 4 4 4 4 3 3 2 2 2 3 3 3 3 3 3 3 3 4 4 4 4 4 4 5 4 5 4 4
6 6 6 6 6 6 5 7 8 7 6 6 6 5 4 3 4 4 4 3 3 2 2 2 2 2 2 2 2 2 2 3 3 2 3 3 3 3 3 4 4 4 5
7 6 5 5 5 5 6 6 7 6 6 6 5 4 4 3 3 3 3 3 3 3 3 3 3 2 2 2 2 2 2 2 2 2 2 3 2 2 2 3 3 3 4
5 5 5 5 5 5 5 6 6 6 6 5 5 4 3 3 3 3 2 2 2 2 2 2 2 2 2 2 2 2 2 2 2 2 2 2 2 2 2 2 3 3 4
5 5 5 5 5 5 5 5 5 5 5 5 5 4 3 3 3 2 2 2 2 2 2 2 2 2 2 2 1 1 1 1 1 1 1 1 1 1 1 1 2 2 2
6 6 5 5 5 5 5 5 5 5 5 5 5 4 3 3 3 2 2 2 2 2 2 2 2 2 2 2 2 2 1 1 1 1 0 1 0 1 1 1 1 1 2
7 7 7 6 6 5 5 5 5 5 5 5 5 4 4 3 3 3 3 3 3 2 2 2 2 2 2 2 2 2 2 1 1 2 2 1 1 1 1 1 1 2 2
9 8 7 7 7 7 6 5 5 5 5 5 5 4 4 4 3 3 3 3 3 3 3 3 3 3 2 3 4 3 2 2 2 2 2 2 2 2 3 3 2 3 3
9 9 8 7 7 7 7 6 5 5 5 5 4 4 4 4 3 3 4 3 3 3 3 3 3 3 3 4 4 5 3 3 2 1 2 2 3 3 2 3 4 3 3
8 7 6 6 5 6 6 6 6 5 5 4 4 4 4 4 4 4 4 3 3 3 3 3 3 2 2 3 4 4 3 3 2 2 2 2 2 2 2 3 3 3 3
6 5 6 6 6 7 7 8 6 5 4 4 4 5 5 5 4 4 3 3 3 3 3 3 3 2 2 3 4 4 3 2 2 2 2 2 2 3 4 3 3 3 3
4 5 6 7 7 6 7 8 6 5 4 4 4 5 5 5 5 4 3 3 3 2 3 3 2 2 1 2 3 3 2 2 1 2 2 2 2 3 3 3 3 2 1
5 6 7 6 5 7 8 7 6 5 4 4 5 5 5 5 5 4 3 4 4 3 3 2 2 3 3 3 3 3 2 1 1 1 1 2 2 3 2 2 2 2 1
6 7 7 6 4 6 7 7 5 4 5 5 5 5 5 4 5 5 4 4 4 3 2 2 3 3 3 3 3 4 3 1 1 0 0 1 2 3 3 2 2 3 3
5 5 7 6 5 5 6 6 5 5 6 5 5 4 4 4 4 5 4 3 3 2 1 1 1 2 2 3 3 3 3 3 1 0 1 2 3 3 3 3 3 2 2
4 4 5 6 4 3 4 4 5 6 7 6 5 5 5 4 4 4 3 3 3 2 2 1 1 0 1 2 2 2 2 3 3 2 3 4 4 3 3 3 2 2 2
4 3 4 4 3 3 3 4 5 6 6 6 5 4 4 5 4 3 2 2 1 2 3 2 2 2 1 1 1 1 0 1 1 2 2 2 2 2 2 2 2 2 2
4 4 3 3 3 3 3 3 4 6 7 5 4 4 4 4 4 4 3 4 3 2 2 2 2 1 1 1 2 1 2 2 3 3 2 1 1 1 1 1 1 1 1
Wind_Direction
204 175 172 170 169 173 175 178 176 175 169 168 176 179 194 196 201 208 208 205 202 196 190 195 190 182 185 192 178 167 164 172 131 90 1 341 301 246 242 235 233 236 235
188 178 168 170 176 179 181 181 183 181 182 184 179 173 168 179 197 206 205 206 203 200 197 191 192 189 186 189 186 173 161 185 165 153 126 331 331 313 252 233 234 241 238
192 185 178 179 177 184 189 190 188 184 185 176 153 130 111 112 155 195 204 206 204 206 202 196 195 192 187 195 198 188 182 197 206 185 164 175 234 294 323 263 242 241 238
179 181 182 181 184 193 190 188 181 179 181 172 173 176 183 194 200 194 196 197 202 206 206 199 197 195 193 197 202 195 194 188 210 214 215 203 177 193 290 311 286 263 254
179 182 183 187 188 180 180 180 174 177 177 178 181 181 191 200 182 170 185 199 206 210 208 202 199 197 198 202 204 198 200 202 206 204 198 207 212 206 220 262 280 292 269
170 169 165 162 165 159 166 167 174 184 179 181 183 184 188 185 176 189 199 204 207 213 212 205 202 203 201 205 208 207 207 212 215 215 204 195 199 205 208 235 254 267 276
161 161 164 163 175 169 171 172 175 185 184 184 189 192 193 188 192 197 202 203 208 220 221 206 202 208 209 210 209 212 216 213 217 223 225 221 226 211 204 218 242 256 269
166 168 173 175 182 180 177 174 180 182 182 184 189 187 190 193 199 198 197 203 210 219 217 206 208 214 215 215 210 219 225 221 225 233 229 230 235 222 216 208 209 248 264
169 167 169 177 179 180 173 175 179 179 182 184 179 177 186 190 195 190 185 195 204 208 198 194 204 214 211 209 201 217 229 225 231 237 234 236 241 231 228 217 206 212 247
168 165 170 179 180 178 171 167 173 178 178 175 178 180 182 183 182 178 185 194 201 196 187 199 208 214 210 201 194 214 225 217 237 245 247 252 254 240 229 223 222 219 223
176 171 170 170 165 153 155 164 165 162 165 169 171 166 168 168 159 172 190 194 193 190 191 199 202 206 200 187 186 212 208 214 241 251 239 253 250 240 235 223 219 217 212
171 165 158 147 146 152 157 162 160 162 163 163 162 164 160 156 162 179 190 184 183 184 188 184 182 192 189 179 181 206 216 218 236 251 247 264 259 242 238 217 217 216 210
158 146 141 146 153 156 160 161 160 159 152 147 152 155 155 154 165 172 167 155 157 159 160 157 163 166 159 156 171 183 190 200 234 251 256 281 268 265 256 220 212 202 193
165 160 160 161 160 157 160 158 152 148 146 143 144 151 155 152 155 148 135 137 143 146 151 148 151 146 139 129 125 117 115 100 52 5 335 313 255 252 256 229 197 160 154
177 179 176 171 161 156 160 152 141 136 138 138 140 153 153 144 132 121 118 122 122 128 124 120 113 112 116 118 121 123 116 89 53 29 16 9 49 78 120 159 168 154 152
190 185 177 172 172 169 163 151 147 143 139 142 152 153 144 139 136 131 124 116 106 98 98 101 110 104 103 102 105 108 108 95 74 37 11 11 26 44 66 92 109 135 158
190 184 182 180 176 168 159 157 152 140 140 148 151 148 145 139 137 132 120 114 107 99 97 96 103 107 101 98 95 94 99 88 71 45 24 22 26 38 54 68 72 75 101
189 186 175 167 160 148 142 139 136 138 143 147 147 148 146 141 135 125 119 108 103 105 97 88 92 97 94 99 98 92 93 80 56 35 25 24 10 36 61 74 67 54 47
183 169 156 151 146 143 142 135 134 132 135 152 158 156 152 146 140 135 126 116 110 101 93 87 88 95 93 109 113 99 96 82 49 32 39 50 38 40 60 80 76 54 36
136 136 134 129 136 142 138 137 142 141 153 167 161 153 150 150 149 146 130 116 115 110 98 77 69 78 71 83 101 104 108 90 56 34 29 45 64 48 65 95 102 84 27
117 121 121 126 137 141 141 143 146 158 156 142 139 140 145 148 141 131 124 122 114 105 90 75 57 54 49 58 71 89 105 117 87 46 7 8 58 58 67 98 120 156 129
109 119 122 120 121 133 142 148 158 157 136 133 133 134 136 138 132 125 116 113 114 112 98 77 59 50 42 45 54 72 92 118 127 182 338 31 81 81 79 87 96 102 98
106 114 123 121 124 132 145 154 158 143 136 133 133 127 121 117 120 126 129 121 119 119 110 99 75 32 27 33 52 67 74 76 71 96 98 85 85 81 80 79 82 96 105
98 101 114 121 123 124 130 140 141 144 142 142 141 135 130 122 116 118 125 132 139 144 151 153 158 8 18 29 26 31 49 65 74 73 76 77 78 75 73 69 72 83 108
88 92 107 120 127 122 113 121 132 140 142 144 142 137 132 133 125 112 102 131 148 175 177 193 189 191 234 268 241 155 90 85 94 93 75 58 59 59 59 60 59 64 83
106 108 112 121 127 126 121 123 137 145 148 150 153 150 144 143 142 137 103 64 79 81 102 140 158 192 213 165 149 118 97 104 113 98 100 93 90 100 104 111 80 67 70
Height
1528 1532 1535 1537 1540 1542 1545 1547 1550 1552 1555 1557 1558 1560 1562 1564 1566 1567 1568 1570 1571 1572 1573 1575 1576 1577 1578 1579 1580 1581 1582 1583 1583 1584 1584 1585 1585 1585 1585 1585 1586 1586 1587
1527 1530 1533 1536 1538 1541 1543 1545 1548 1551 1553 1555 1557 1559 1561 1562 1564 1566 1567 1568 1570 1571 1572 1573 1574 1575 1576 1577 1579 1580 1581 1581 1582 1583 1583 1583 1584 1582 1583 1583 1583 1584 1584
1526 1528 1531 1534 1537 1539 1542 1544 1546 1549 1552 1554 1556 1558 1559 1560 1562 1564 1565 1566 1568 1569 1570 1571 1572 1573 1574 1575 1577 1578 1579 1579 1580 1581 1582 1581 1580 1580 1581 1581 1581 1581 1581
1524 1527 1530 1532 1535 1538 1541 1543 1546 1548 1550 1552 1554 1555 1557 1558 1559 1561 1563 1564 1566 1567 1568 1569 1570 1571 1572 1573 1574 1575 1576 1577 1578 1578 1579 1580 1579 1579 1578 1579 1579 1578 1578
1522 1525 1527 1530 1533 1536 1539 1542 1544 1546 1548 1550 1552 1554 1555 1557 1558 1559 1561 1562 1563 1565 1565 1567 1568 1569 1569 1570 1571 1572 1573 1574 1575 1575 1576 1576 1577 1577 1577 1575 1575 1575 1575
1519 1522 1526 1530 1532 1535 1537 1540 1542 1544 1546 1548 1550 1551 1553 1554 1556 1557 1559 1560 1561 1562 1563 1564 1565 1566 1567 1567 1568 1569 1570 1571 1571 1572 1572 1573 1573 1573 1573 1572 1572 1572 1572
1519 1522 1525 1527 1530 1532 1535 1537 1540 1542 1543 1546 1547 1549 1551 1553 1554 1555 1557 1558 1559 1560 1561 1562 1563 1563 1564 1564 1565 1566 1566 1567 1568 1568 1568 1569 1569 1570 1569 1569 1568 1568 1568
1518 1521 1524 1526 1528 1530 1532 1535 1537 1539 1542 1543 1545 1547 1549 1550 1552 1553 1555 1556 1557 1558 1559 1560 1560 1561 1561 1562 1562 1563 1563 1564 1564 1564 1565 1565 1565 1565 1565 1565 1565 1564 1564
1517 1520 1522 1525 1527 1528 1530 1533 1536 1537 1540 1541 1543 1545 1546 1547 1549 1551 1552 1554 1555 1556 1557 1557 1558 1558 1559 1559 1559 1559 1560 1560 1560 1560 1560 1560 1560 1561 1560 1561 1561 1562 1560
1516 1519 1521 1523 1525 1527 1528 1531 1533 1535 1537 1539 1541 1543 1544 1545 1547 1548 1550 1551 1552 1553 1554 1555 1555 1556 1556 1556 1556 1556 1556 1557 1557 1557 1556 1556 1556 1556 1556 1556 1557 1557 1557
1516 1518 1520 1522 1524 1526 1528 1530 1532 1533 1535 1537 1539 1541 1542 1544 1545 1546 1547 1549 1550 1551 1551 1552 1553 1553 1553 1553 1553 1553 1554 1553 1553 1553 1553 1552 1552 1552 1552 1552 1552 1552 1552
1515 1517 1520 1522 1523 1525 1527 1528 1530 1531 1533 1536 1538 1539 1541 1543 1544 1545 1546 1547 1547 1548 1549 1550 1550 1550 1550 1550 1551 1550 1551 1550 1550 1549 1549 1549 1548 1548 1548 1548 1548 1548 1548
1514 1517 1519 1521 1523 1525 1527 1528 1529 1531 1532 1535 1536 1538 1540 1541 1542 1543 1544 1545 1546 1546 1547 1547 1548 1548 1548 1548 1548 1548 1548 1548 1547 1547 1546 1546 1545 1545 1545 1544 1544 1544 1544
1513 1516 1518 1521 1523 1525 1527 1528 1529 1530 1532 1534 1535 1537 1538 1540 1541 1541 1542 1543 1544 1544 1545 1545 1545 1545 1546 1546 1546 1546 1545 1545 1545 1545 1544 1543 1543 1542 1542 1542 1541 1541 1541
1511 1514 1517 1519 1522 1524 1526 1528 1529 1531 1532 1534 1535 1536 1537 1538 1539 1540 1540 1541 1541 1542 1542 1543 1543 1543 1543 1543 1543 1543 1543 1542 1543 1542 1542 1542 1541 1540 1540 1539 1539 1538 1538
1509 1511 1515 1518 1520 1522 1525 1527 1529 1531 1532 1533 1534 1535 1536 1537 1538 1538 1539 1539 1540 1540 1541 1541 1541 1541 1541 1541 1541 1541 1541 1541 1540 1540 1540 1540 1539 1539 1538 1537 1537 1537 1536
1507 1510 1513 1516 1519 1522 1524 1526 1528 1530 1531 1532 1533 1534 1535 1536 1537 1537 1538 1538 1539 1539 1539 1539 1539 1539 1539 1540 1540 1540 1539 1539 1538 1538 1538 1538 1538 1537 1536 1536 1535 1535 1534
1506 1509 1512 1515 1519 1521 1523 1525 1527 1528 1529 1530 1531 1532 1534 1534 1535 1536 1537 1537 1538 1538 1538 1537 1538 1538 1538 1538 1538 1538 1538 1537 1537 1537 1536 1536 1535 1535 1535 1534 1533 1533 1533
1505 1508 1511 1514 1517 1520 1522 1524 1526 1527 1528 1529 1530 1530 1532 1533 1534 1535 1536 1536 1537 1537 1537 1537 1537 1537 1537 1537 1537 1537 1536 1536 1535 1535 1535 1534 1534 1533 1533 1532 1532 1531 1531
1504 1507 1510 1513 1516 1518 1521 1522 1524 1525 1526 1528 1528 1529 1531 1532 1533 1534 1534 1535 1536 1536 1536 1536 1536 1536 1536 1535 1535 1535 1534 1534 1533 1533 1533 1533 1532 1532 1531 1531 1530 1530 1530
1504 1507 1509 1512 1515 1517 1519 1521 1523 1524 1525 1526 1527 1528 1529 1531 1532 1533 1533 1534 1535 1535 1535 1535 1535 1535 1535 1535 1534 1534 1533 1532 1532 1531 1531 1531 1530 1530 1530 1529 1529 1529 1529
1504 1506 1508 1511 1514 1516 1518 1520 1522 1524 1524 1525 1526 1527 1528 1529 1530 1531 1532 1533 1534 1534 1534 1534 1534 1534 1534 1534 1533 1532 1532 1531 1530 1530 1530 1529 1529 1528 1528 1528 1528 1528 1528
1505 1507 1508 1510 1512 1515 1518 1519 1521 1523 1524 1524 1525 1526 1527 1528 1529 1530 1531 1532 1533 1533 1533 1533 1533 1533 1532 1532 1531 1531 1530 1529 1529 1529 1529 1528 1528 1527 1527 1527 1527 1527 1527
1506 1508 1509 1511 1512 1515 1517 1518 1520 1521 1522 1523 1524 1524 1525 1526 1528 1528 1529 1530 1530 1531 1531 1531 1531 1531 1531 1530 1529 1529 1528 1528 1527 1527 1527 1527 1526 1526 1526 1526 1525 1525 1526
1505 1508 1510 1511 1512 1514 1516 1517 1518 1520 1521 1522 1523 1523 1524 1525 1526 1527 1527 1528 1529 1529 1530 1529 1529 1529 1528 1528 1528 1527 1526 1526 1526 1525 1525 1525 1525 1524 1524 1524 1524 1524 1524
1506 1508 1510 1511 1512 1514 1515 1516 1517 1518 1519 1520 1521 1522 1522 1523 1524 1525 1526 1527 1528 1528 1528 1527 1528 1527 1527 1526 1526 1525 1525 1525 1524 1524 1524 1524 1523 1523 1523 1523 1522 1523 1523